Weather History for Dickinson, ND

Change the Weather History Date:

Thursday, February 14, 2013

  Actual Average Record
Temperature  
Mean Temperature 25 °F 20 °F  
Max Temperature 30 °F 31 °F 57 °F (1981)
Min Temperature 20 °F 10 °F -37 °F (1936)
Degree Days  
Heating Degree Days 40 45  
Month to date heating degree days 533 646  
Since 1 July heating degree days 5413 5693  
Cooling Degree Days 0 0  
Month to date cooling degree days 0 0  
Year to date cooling degree days 0 0  
Moisture  
Dew Point 20 °F    
Average Humidity 78    
Maximum Humidity 88    
Minimum Humidity 68    
Precipitation  
Precipitation T in 0.01 in 0.28 in (1965)
Month to date precipitation T 0.12  
Year to date precipitation 0.08 0.42  
Sea Level Pressure  
Sea Level Pressure 30.10 in    
Wind  
Wind Speed 18 mph (NW)    
Max Wind Speed 33 mph    
Max Gust Speed 43 mph    
Visibility 7 miles    
Events Snow    
T = Trace of Precipitation, MM = Missing Value Source: NWS Daily Summary

Daily Weather History Graph

Daily Weather History Graph

Search for Another Location

Airport:

Trip Planner

Search our weather history database for the weather conditions in past years. The results will help you decide how hot, cold, wet, or windy it might be!

Date:

Astronomy

Feb. 14, 2013 Rise Set
Actual Time 6:56 AM MST 5:15 PM MST
Civil Twilight 6:25 AM MST 5:46 PM MST
Nautical Twilight 5:49 AM MST 6:21 PM MST
Astronomical Twilight 5:14 AM MST 6:56 PM MST
Moon 8:38 AM MST (2/14) 10:43 PM MST (2/14)
Length of Visible Light 11h 21m
Length of Day
10h 18m
Waxing Crescent, 22% of the Moon is Illuminated
Feb 14
Waxing Crescent
Feb 17
First Quarter
Feb 25
Full
Mar 4
Last Quarter
Mar 11
New

Hourly Weather History & Observations

Time (MST) Temp. Windchill Dew Point Humidity Pressure Visibility Wind Dir Wind Speed Gust Speed Precip Events Conditions
12:38 AM 30.2 °F 15.9 °F 21.2 °F 69% 29.80 in 10.0 mi WNW 26.5 mph 34.5 mph N/A   Overcast
12:56 AM 30.0 °F 15.7 °F 21.9 °F 72% 29.86 in 10.0 mi WNW 26.5 mph 35.7 mph N/A   Overcast
1:56 AM 28.9 °F 13.2 °F 23.0 °F 78% 29.87 in 10.0 mi WNW 31.1 mph 40.3 mph N/A   Overcast
2:37 AM 28.4 °F 13.5 °F 24.8 °F 86% 29.81 in 10.0 mi WNW 26.5 mph 33.4 mph N/A   Overcast
2:56 AM 28.9 °F 14.5 °F 24.1 °F 82% 29.89 in 10.0 mi WNW 25.3 mph 38.0 mph N/A   Overcast
3:44 AM 30.2 °F 16.8 °F 24.8 °F 80% 29.83 in 10.0 mi WNW 23.0 mph - N/A   Overcast
3:56 AM 30.0 °F 17.5 °F 24.1 °F 79% 29.89 in 10.0 mi WNW 19.6 mph 29.9 mph N/A   Overcast
4:44 AM 28.4 °F 14.4 °F 24.8 °F 86% 29.84 in 5.0 mi NW 23.0 mph 29.9 mph 0.00 in Snow Light Snow
4:56 AM 28.0 °F 15.3 °F 25.0 °F 88% 29.92 in 6.0 mi NW 18.4 mph 26.5 mph 0.00 in Snow Light Snow
5:03 AM 28.4 °F 16.6 °F 24.8 °F 86% 29.85 in 6.0 mi NW 16.1 mph 24.2 mph 0.00 in Snow Light Snow
5:15 AM 28.4 °F 15.8 °F 24.8 °F 86% 29.85 in 4.0 mi NW 18.4 mph 24.2 mph 0.00 in Snow Light Snow
5:38 AM 28.4 °F 14.4 °F 24.8 °F 86% 29.88 in 1.8 mi NNW 23.0 mph 40.3 mph 0.00 in Snow Light Snow
5:52 AM 24.8 °F 7.9 °F 21.2 °F 86% 29.91 in 0.8 mi North 29.9 mph 41.4 mph 0.00 in Snow Light Snow
5:56 AM 25.0 °F 7.8 °F 21.0 °F 85% 30.00 in 1.0 mi North 31.1 mph 41.4 mph 0.00 in Snow Light Snow
6:09 AM 24.8 °F 9.3 °F 19.4 °F 80% 29.94 in 2.0 mi North 24.2 mph 36.8 mph 0.00 in Snow Light Snow
6:20 AM 24.8 °F 9.6 °F 19.4 °F 80% 29.97 in 2.0 mi North 23.0 mph 38.0 mph 0.00 in Snow Light Snow
6:40 AM 23.0 °F 8.0 °F 19.4 °F 86% 29.99 in 1.5 mi North 20.7 mph 25.3 mph 0.00 in Snow Light Snow
6:56 AM 23.0 °F 9.6 °F 19.0 °F 85% 30.10 in 2.0 mi North 16.1 mph 32.2 mph 0.00 in Snow Light Snow
7:37 AM 21.2 °F 6.8 °F 17.6 °F 86% 30.07 in 3.0 mi NNW 17.3 mph 26.5 mph 0.00 in Snow Light Snow
8:15 AM 21.2 °F 6.8 °F 17.6 °F 86% 30.10 in 9.0 mi NNW 17.3 mph 24.2 mph 0.00 in   Overcast
8:56 AM 21.0 °F 6.2 °F 17.1 °F 85% 30.23 in 9.0 mi NNW 18.4 mph 24.2 mph 0.00 in Snow Light Snow
9:25 AM 21.2 °F 6.0 °F 15.8 °F 80% 30.15 in 2.5 mi NNW 19.6 mph 26.5 mph 0.00 in Snow Light Snow
9:39 AM 21.2 °F 5.2 °F 15.8 °F 80% 30.15 in 3.0 mi NNW 21.9 mph 26.5 mph 0.00 in Snow Light Snow
9:51 AM 21.2 °F 6.8 °F 15.8 °F 80% 30.16 in 2.5 mi NNW 17.3 mph 26.5 mph 0.00 in Snow Light Snow
9:56 AM 21.0 °F 6.6 °F 15.1 °F 78% 30.26 in 4.0 mi NNW 17.3 mph - 0.00 in Snow Light Snow
10:56 AM 23.0 °F 7.6 °F 16.0 °F 74% 30.27 in 7.0 mi NNW 21.9 mph - 0.00 in Snow Light Snow
11:56 AM 24.1 °F 8.7 °F 16.0 °F 71% 30.28 in 9.0 mi NW 23.0 mph - 0.00 in Snow Light Snow
12:56 PM 26.1 °F 14.0 °F 17.1 °F 69% 30.28 in 9.0 mi NNW 15.0 mph - 0.00 in   Overcast
1:56 PM 25.0 °F 10.2 °F 18.0 °F 75% 30.29 in 9.0 mi NW 21.9 mph 26.5 mph 0.00 in Snow Light Snow
2:24 PM 26.6 °F 14.7 °F 19.4 °F 74% 30.20 in 5.0 mi NNW 15.0 mph - 0.00 in Snow Light Snow
2:56 PM 25.0 °F 12.6 °F 18.0 °F 75% 30.31 in 9.0 mi NNW 15.0 mph - 0.00 in Snow Light Snow
3:16 PM 24.8 °F 12.4 °F 17.6 °F 74% 30.21 in 9.0 mi NNW 15.0 mph - 0.00 in   Overcast
3:56 PM 25.0 °F 12.6 °F 17.1 °F 72% 30.31 in 9.0 mi NNW 15.0 mph 19.6 mph 0.00 in Snow Light Snow
4:56 PM 23.0 °F 11.1 °F 18.0 °F 81% 30.32 in 9.0 mi NW 12.7 mph - 0.00 in Snow Light Snow
5:56 PM 23.0 °F 13.9 °F 18.0 °F 81% 30.32 in 10.0 mi WNW 8.1 mph - 0.00 in   Overcast
6:56 PM 23.0 °F 14.7 °F 18.0 °F 81% 30.32 in 10.0 mi West 6.9 mph - N/A   Overcast
7:56 PM 24.1 °F 13.7 °F 18.0 °F 77% 30.32 in 9.0 mi West 10.4 mph - 0.00 in Snow Light Snow
8:22 PM 24.8 °F 14.6 °F 19.4 °F 80% 30.20 in 3.0 mi NW 10.4 mph - 0.00 in Snow Light Snow
8:56 PM 23.0 °F 11.1 °F 19.0 °F 85% 30.32 in 9.0 mi NW 12.7 mph - 0.00 in   Overcast
9:56 PM 23.0 °F 13.1 °F 19.0 °F 85% 30.31 in 10.0 mi NW 9.2 mph - N/A   Overcast
10:56 PM 23.0 °F 10.6 °F 19.0 °F 85% 30.31 in 9.0 mi NW 13.8 mph - 0.00 in Snow Light Snow
11:56 PM 21.0 °F 8.1 °F 16.0 °F 81% 30.32 in 9.0 mi NNW 13.8 mph - 0.00 in Snow Light Snow